• In Netherlands
  • List of Countries
  • For 7 days
  • Water Temperature
  • Satellite Maps
  • Weather Map
  • Weather Widgets
  • user-avatar
    Login

    Hourly Weather Santiago del Estero

    Today, 25 April, Wednesday

    Time Temperature Precipitation Wind Pressure Humidity
    00:00 +25°C° 0 mm 1 mps 743 mmHg 82%
    01:00 +25°C° 0 mm 1 mps 743 mmHg 82%
    02:00 +24°C° 0 mm 1 mps 743 mmHg 84%
    03:00 +24°C° 0 mm 1 mps 743 mmHg 83%
    04:00 +24°C° 0 mm 1 mps 743 mmHg 82%
    05:00 +25°C° 0 mm 1 mps 744 mmHg 81%
    06:00 +25°C° 0 mm 1 mps 744 mmHg 80%
    07:00 +25°C° 0 mm 2 mps 744 mmHg 79%
    08:00 +26°C° 0 mm 2 mps 745 mmHg 77%
    09:00 +27°C° 0 mm 2 mps 745 mmHg 72%
    10:00 +28°C° 0 mm 2 mps 745 mmHg 66%
    11:00 +30°C° 0 mm 3 mps 745 mmHg 61%
    12:00 +31°C° 0 mm 3 mps 744 mmHg 58%
    13:00 +32°C° 0 mm 4 mps 744 mmHg 55%
    14:00 +33°C° 0 mm 4 mps 743 mmHg 53%
    15:00 +33°C° 0 mm 4 mps 743 mmHg 52%
    16:00 +33°C° 0 mm 3 mps 742 mmHg 52%
    17:00 +33°C° 0 mm 3 mps 742 mmHg 52%
    18:00 +31°C° 0 mm 3 mps 742 mmHg 55%
    19:00 +30°C° 0 mm 3 mps 742 mmHg 58%
    20:00 +28°C° 0 mm 3 mps 742 mmHg 61%
    21:00 +28°C° 0 mm 3 mps 742 mmHg 60%
    22:00 +28°C° 0 mm 3 mps 742 mmHg 59%
    23:00 +29°C° 0 mm 3 mps 742 mmHg 58%

    Tomorrow, 26 April, Thursday

    Time Temperature Precipitation Wind Pressure Humidity
    00:00 +28°C° 0 mm 3 mps 742 mmHg 57%
    01:00 +28°C° 0 mm 3 mps 742 mmHg 55%
    02:00 +28°C° 0 mm 3 mps 742 mmHg 54%
    03:00 +28°C° 0 mm 4 mps 741 mmHg 53%
    04:00 +28°C° 0 mm 4 mps 741 mmHg 52%
    05:00 +27°C° 0 mm 5 mps 740 mmHg 51%
    06:00 +27°C° 0 mm 5 mps 741 mmHg 51%
    07:00 +27°C° 0 mm 5 mps 741 mmHg 51%
    08:00 +27°C° 0 mm 5 mps 741 mmHg 51%
    09:00 +29°C° 0 mm 6 mps 741 mmHg 47%
    10:00 +32°C° 0 mm 7 mps 741 mmHg 42%
    11:00 +34°C° 0 mm 8 mps 741 mmHg 37%
    12:00 +35°C° 0 mm 8 mps 740 mmHg 36%
    13:00 +37°C° 0 mm 9 mps 739 mmHg 34%
    14:00 +38°C° 0 mm 9 mps 738 mmHg 32%
    15:00 +36°C° 0 mm 7 mps 737 mmHg 34%
    16:00 +35°C° 0 mm 6 mps 737 mmHg 37%
    17:00 +34°C° 0 mm 5 mps 736 mmHg 40%
    18:00 +33°C° 0 mm 4 mps 737 mmHg 42%
    19:00 +32°C° 0 mm 4 mps 737 mmHg 44%
    20:00 +30°C° 0 mm 3 mps 737 mmHg 46%
    21:00 +29°C° 0 mm 3 mps 737 mmHg 47%
    22:00 +29°C° 0 mm 3 mps 737 mmHg 47%
    23:00 +28°C° 0 mm 3 mps 737 mmHg 48%

    Day after tomorrow, 27 April, Friday

    Time Temperature Precipitation Wind Pressure Humidity
    00:00 +28°C° 0 mm 3 mps 737 mmHg 49%
    01:00 +28°C° 0 mm 4 mps 737 mmHg 50%
    02:00 +27°C° 0 mm 4 mps 737 mmHg 51%
    03:00 +27°C° 0 mm 4 mps 737 mmHg 52%
    04:00 +27°C° 0 mm 4 mps 737 mmHg 53%
    05:00 +26°C° 0 mm 4 mps 737 mmHg 55%
    06:00 +27°C° 0 mm 4 mps 738 mmHg 54%
    07:00 +27°C° 0 mm 4 mps 738 mmHg 54%
    08:00 +27°C° 0 mm 4 mps 739 mmHg 54%
    09:00 +29°C° 0 mm 5 mps 739 mmHg 49%
    10:00 +32°C° 0 mm 6 mps 739 mmHg 43%
    11:00 +34°C° 0 mm 6 mps 740 mmHg 38%
    12:00 +35°C° 0 mm 6 mps 739 mmHg 36%
    13:00 +36°C° 0 mm 6 mps 739 mmHg 34%
    14:00 +37°C° 0 mm 5 mps 738 mmHg 31%
    15:00 +37°C° 0 mm 4 mps 738 mmHg 33%
    16:00 +36°C° 0 mm 3 mps 738 mmHg 35%
    17:00 +36°C° 0 mm 2 mps 738 mmHg 37%
    18:00 +34°C° 0 mm 2 mps 739 mmHg 41%
    19:00 +31°C° 0 mm 2 mps 739 mmHg 45%
    20:00 +29°C° 0 mm 1 mps 740 mmHg 49%
    21:00 +28°C° 0 mm 1 mps 740 mmHg 51%
    22:00 +28°C° 0 mm 1 mps 741 mmHg 53%
    23:00 +27°C° 0 mm 1 mps 741 mmHg 55%

    28 April, Saturday

    Time Temperature Precipitation Wind Pressure Humidity
    00:00 +27°C° 0 mm 1 mps 741 mmHg 57%
    01:00 +26°C° 0 mm 1 mps 741 mmHg 59%
    02:00 +26°C° 0 mm 1 mps 741 mmHg 60%
    03:00 +26°C° 0 mm 2 mps 741 mmHg 61%
    04:00 +26°C° 0 mm 2 mps 741 mmHg 61%
    05:00 +25°C° 0 mm 2 mps 741 mmHg 62%
    06:00 +25°C° 0 mm 3 mps 742 mmHg 63%
    07:00 +25°C° 0 mm 3 mps 743 mmHg 64%
    08:00 +25°C° 0 mm 3 mps 743 mmHg 65%
    09:00 +27°C° 0 mm 3 mps 743 mmHg 60%
    10:00 +28°C° 0 mm 3 mps 743 mmHg 56%
    11:00 +30°C° 0 mm 4 mps 744 mmHg 51%
    12:00 +31°C° 0 mm 3 mps 743 mmHg 49%
    13:00 +33°C° 0 mm 3 mps 742 mmHg 46%
    14:00 +34°C° 0 mm 3 mps 741 mmHg 44%
    15:00 +34°C° 0 mm 3 mps 741 mmHg 46%
    16:00 +34°C° 0 mm 2 mps 741 mmHg 47%
    17:00 +34°C° 0 mm 2 mps 740 mmHg 48%
    18:00 +32°C° 0 mm 2 mps 741 mmHg 52%
    19:00 +30°C° 0 mm 3 mps 741 mmHg 57%
    20:00 +29°C° 0 mm 3 mps 742 mmHg 61%
    21:00 +28°C° 0 mm 3 mps 742 mmHg 63%
    22:00 +28°C° 0 mm 3 mps 742 mmHg 65%
    23:00 +28°C° 0 mm 3 mps 742 mmHg 67%

    29 April, Sunday

    Time Temperature Precipitation Wind Pressure Humidity
    00:00 +27°C° 0.1 mm 3 mps 741 mmHg 70%
    01:00 +27°C° 0.1 mm 2 mps 741 mmHg 73%
    02:00 +26°C° 0.1 mm 2 mps 740 mmHg 76%
    03:00 +26°C° 0 mm 2 mps 740 mmHg 77%
    04:00 +26°C° 0 mm 2 mps 740 mmHg 79%
    05:00 +25°C° 0 mm 2 mps 739 mmHg 81%
    06:00 +26°C° 0 mm 2 mps 740 mmHg 79%
    07:00 +26°C° 0 mm 3 mps 740 mmHg 78%
    08:00 +27°C° 0 mm 3 mps 740 mmHg 77%
    09:00 +29°C° 0.1 mm 4 mps 740 mmHg 69%
    10:00 +32°C° 0.1 mm 5 mps 740 mmHg 61%
    11:00 +34°C° 0.1 mm 6 mps 740 mmHg 54%
    12:00 +35°C° 0 mm 7 mps 739 mmHg 50%
    13:00 +36°C° 0 mm 7 mps 738 mmHg 46%
    14:00 +38°C° 0 mm 8 mps 737 mmHg 42%
    15:00 +36°C° 0 mm 6 mps 736 mmHg 43%
    16:00 +36°C° 0 mm 5 mps 736 mmHg 44%
    17:00 +36°C° 0 mm 4 mps 736 mmHg 45%
    18:00 +34°C° 0 mm 4 mps 736 mmHg 48%
    19:00 +33°C° 0 mm 3 mps 736 mmHg 50%
    20:00 +31°C° 0 mm 3 mps 737 mmHg 53%
    21:00 +31°C° 0 mm 3 mps 737 mmHg 53%
    22:00 +31°C° 0 mm 3 mps 737 mmHg 52%
    23:00 +31°C° 0 mm 3 mps 737 mmHg 52%

    30 April, Monday

    Time Temperature Precipitation Wind Pressure Humidity
    00:00 +30°C° 0 mm 2 mps 737 mmHg 54%
    01:00 +30°C° 0 mm 2 mps 736 mmHg 55%
    02:00 +29°C° 0 mm 2 mps 736 mmHg 56%
    03:00 +29°C° 0 mm 2 mps 736 mmHg 57%
    04:00 +29°C° 0 mm 2 mps 736 mmHg 58%
    05:00 +28°C° 0 mm 2 mps 736 mmHg 59%
    06:00 +28°C° 0 mm 2 mps 737 mmHg 60%
    07:00 +28°C° 0 mm 3 mps 737 mmHg 62%
    08:00 +28°C° 0 mm 3 mps 738 mmHg 64%
    09:00 +29°C° 0 mm 4 mps 738 mmHg 60%
    10:00 +32°C° 0 mm 4 mps 738 mmHg 56%
    11:00 +33°C° 0 mm 4 mps 739 mmHg 52%
    12:00 +34°C° 0 mm 4 mps 738 mmHg 50%
    13:00 +34°C° 0 mm 3 mps 737 mmHg 48%
    14:00 +35°C° 0 mm 3 mps 737 mmHg 47%
    15:00 +34°C° 0 mm 4 mps 737 mmHg 51%
    16:00 +33°C° 0 mm 5 mps 737 mmHg 55%
    17:00 +30°C° 0 mm 5 mps 737 mmHg 60%
    18:00 +29°C° 0.1 mm 5 mps 738 mmHg 66%
    19:00 +28°C° 0.1 mm 5 mps 739 mmHg 73%
    20:00 +26°C° 0.1 mm 5 mps 740 mmHg 79%
    21:00 +25°C° 0.8 mm 5 mps 740 mmHg 83%
    22:00 +23°C° 0.8 mm 4 mps 740 mmHg 86%
    23:00 +23°C° 0.8 mm 4 mps 740 mmHg 90%
    Show more